Retour au catalogue

COSMOS 2251 DEB

ActifLEO
NORAD 38068·DEBRIS·🇷🇺 Russia

Lancé Jun 16, 1993 depuis Plesetsk Cosmodrome

Loading…

Prochains Passages (prochaines 24 heures)

TLE

PériméSource: Space-Track

Époque: Sep 6, 2026, 05:00 UTC

1 38068U 93036BSA 26249.20854977  .00000282  00000-0  10508-3 0  9990
2 38068  74.0221 176.6250 0026751 205.8243 154.1576 14.36336959704868

Suivez COSMOS 2251 DEB en temps réel avec AllMySat

Download on the App Store